Location: Bas Lanzent
(48.1360°N, 3.5871°W)
Time: 09:45:52
(UTC+00:00)

USA 116 - Pass Details

Date: 18 February 2020
Orbit: 405 x 834 km, 97.9° (Epoch: 18 November)

Event Time Altitude Azimuth Distance (km) Brightness Sun altitude
Rises 05:55:42 0° 172° (S) 2,408 7.1 -14.2°
Reaches altitude 10° 05:57:45 10° 176° (S) 1,511 6.0 -13.8°
Maximum altitude 06:00:54 61° 257° (WSW) 472 3.1 -13.3°
Drops below altitude 10° 06:03:59 10° 340° (NNW) 1,477 5.7 -12.8°
Sets 06:05:59 0° 344° (NNW) 2,346 6.7 -12.5°
